User: anonymous   Login
Location: ???????
(55.4362°N, 38.1183°E)
Time: 21:19:44
(UTC+00:00)
Language:

NOSS 8 (A) - Orbit

View from above orbital plane
View from above orbital plane
View from above satellite
View from above satellite

Ground track
Ground track

The orbit data is extracted from the following two-line orbital elements,

1 17997U 87043A   21250.06950359 0.00002800  00000-0  18538-3 0    03
2 17997  63.2889 336.5121 0939751  74.7215 285.2785 13.51391253    02
Epoch (UTC): 07 September 2021 01:40:05
Eccentricity: 0.0939751
inclination: 63.2889°
perigee height: 367 km
apogee height: 1767 km
right ascension of ascending node: 336.5121°
argument of perigee: 74.7215°
revolutions per day: 13.51391253
mean anomaly at epoch: 285.2785°
orbit number at epoch: 0

The dashed part of the orbit path shows where the satellite is in the earth's shadow,  

DLR